Regional Weather Roundup
Issued by NWS

Home | Current Version | Previous Version | Text Only | Print | Product List | Glossary Off
Versions: 1 2 3 4 5 6 7 8 9 10 11 12 13 14 15 16 17 18 19 20 21 22 23 24 25 26 27 28 29 30 31 32 33 34 35 36 37 38 39 40 41 42 43 44 45 46 47 48 49 50

140
ASUS43 KOAX 240602
RWRNE

WEATHER ROUNDUP FOR NEBRASKA
NATIONAL WEATHER SERVICE OMAHA NE
1200 AM CST FRI NOV 24 2017

NOTES: SATELLITE DATA IS BEING USED TO AUGMENT CLOUD COVER ABOVE
       12000 FEET.
       "FAIR" INDICATES FEW OR NO CLOUDS BELOW 12,000 FEET WITH NO
       SIGNIFICANT WEATHER AND/OR OBSTRUCTIONS TO VISIBILITY.


NEZ001>004-019>022-054>056-240700-
NEBRASKA PANHANDLE

CITY           SKY/WX    TMP DP  RH WIND       PRES   REMARKS
SCOTTSBLUFF    CLOUDY    52  35  52 CALM      29.78F
6HR MIN TEMP:  44; 6HR MAX TEMP:  59;

ALLIANCE       CLOUDY    39  35  86 W10       29.75F WCI  32
6HR MIN TEMP:  38; 6HR MAX TEMP:  52;

CHADRON        CLOUDY    42  36  79 SW12      29.70F
6HR MIN TEMP:  38; 6HR MAX TEMP:  60;

GORDON         FAIR      50  36  58 W6        29.71S
6HR MIN TEMP:  47; 6HR MAX TEMP:  62;

KIMBALL        CLOUDY    56  30  37 W16       29.85F
SIDNEY         CLOUDY    56  31  38 W15       29.83F
6HR MIN TEMP:  38; 6HR MAX TEMP:  60;

$$

NEZ057>060-069>072-079>082-240700-
SOUTHWEST NEBRASKA

CITY           SKY/WX    TMP DP  RH WIND       PRES   REMARKS
NORTH PLATTE   CLEAR     35  32  88 NW6       29.75F WCI  30
6HR MIN TEMP:  34; 6HR MAX TEMP:  52;

IMPERIAL       CLOUDY    45  32  60 W8        29.80F
6HR MIN TEMP:  45; 6HR MAX TEMP:  58;

LEXINGTON      CLOUDY    54  38  55 SW9       29.74S
MCCOOK         CLOUDY    50  38  63 W13       29.79F
6HR MIN TEMP:  48; 6HR MAX TEMP:  63;

OGALLALA       CLEAR     38  32  77 W7        29.78F WCI  33
$$

NEZ005>010-023>029-035>040-094-240700-
NORTH CENTRAL NEBRASKA

CITY           SKY/WX    TMP DP  RH WIND       PRES   REMARKS
VALENTINE      CLEAR     48  36  63 W6        29.63F
6HR MIN TEMP:  47; 6HR MAX TEMP:  54;

AINSWORTH      CLOUDY    51  39  63 SW10      29.64F
BROKEN BOW     CLEAR     53  39  59 W10       29.70F
6HR MIN TEMP:  42; 6HR MAX TEMP:  60;

O`NEILL        CLOUDY    50  43  77 SW9       29.63F
ORD            PTCLDY    51  41  68 SW9       29.67F
6HR MIN TEMP:  48; 6HR MAX TEMP:  59;

THEDFORD       CLEAR     55  39  56 W14       29.70F
$$

NEZ041-046>049-061>064-073>077-083>087-240700-
SOUTH CENTRAL NEBRASKA

CITY           SKY/WX    TMP DP  RH WIND       PRES   REMARKS
GRAND ISLAND   CLOUDY    54  42  64 S12       29.71F
6HR MIN TEMP:  52; 6HR MAX TEMP:  60;

AURORA         CLOUDY    50  40  67 S8        29.71F
HASTINGS       CLEAR     53  40  61 S8        29.73F
6HR MIN TEMP:  53; 6HR MAX TEMP:  61;

HEBRON         PTCLDY    55  40  56 SW9       29.76F
HOLDREGE       CLOUDY    54  40  59 SW12      29.75F
KEARNEY        CLEAR     55  40  56 SW15      29.72F
YORK           PTCLDY    48  39  71 S9        29.72F
$$

NEZ011>018-030>034-042>045-240700-
NORTHEAST NEBRASKA

CITY           SKY/WX    TMP DP  RH WIND       PRES   REMARKS
NORFOLK        CLOUDY    53  41  63 S16       29.65F
6HR MIN TEMP:  53; 6HR MAX TEMP:  61;

ALBION         PTCLDY    52  40  65 SE5       29.68F
BLAIR          PTCLDY    53  40  62 S12       29.71F
COLUMBUS       CLOUDY    54  41  61 SW6       29.70F
FREMONT        CLOUDY    56  39  53 S10       29.71F
TEKAMAH        CLEAR     48  37  65 S10       29.70F
6HR MIN TEMP:  44; 6HR MAX TEMP:  51;

WAYNE          CLEAR     53  38  58 SW12      29.65F
$$

NEZ050>053-065>068-078-088>093-240700-
SOUTHEAST NEBRASKA

CITY           SKY/WX    TMP DP  RH WIND       PRES   REMARKS
LINCOLN        PTCLDY    53  40  61 S10       29.74F
6HR MIN TEMP:  48; 6HR MAX TEMP:  56;

OMAHA EPPLEY   PTCLDY    46  37  71 SE10      29.72F
6HR MIN TEMP:  46; 6HR MAX TEMP:  54;

BEATRICE       CLOUDY    55  40  56 S10       29.76F
FALLS CITY     PTCLDY    54  38  54 S15       29.79F
6HR MIN TEMP:  50; 6HR MAX TEMP:  58;

NEBRASKA CITY  PTCLDY    51  39  63 S10       29.76F
PLATTSMOUTH    PTCLDY    51  40  64 S13       29.74F
$$

NEZ044-045-051>053-067-240700-
OMAHA AREA

CITY           SKY/WX    TMP DP  RH WIND       PRES   REMARKS
OMAHA EPPLEY   PTCLDY    46  37  71 SE10      29.72F
6HR MIN TEMP:  46; 6HR MAX TEMP:  54;

BLAIR          PTCLDY    53  40  62 S12       29.71F
FREMONT        CLOUDY    56  39  53 S10       29.71F
MILLARD        PTCLDY    51  40  66 CALM      29.73F
OFFUTT AFB     PTCLDY    46  37  71 E7        29.73F
PLATTSMOUTH    PTCLDY    51  40  64 S13       29.74F
WAHOO          FAIR      52  39  62 S9        29.71F
$$




USA.gov is the U.S. government's official web portal to all federal, state and local government web resources and services.